[[{"header":{"parameterUnit":"m.s-1","parameterCategory":1,"la1":30.2991,"la2":30.254,"lo1":-89.0895,"lo2":-89.0444,"dy":0.0017,"dx":0.0017,"nx":28,"ny":28,"refTime":"2024-06-24T21:00:00:Z","depth":0,"parameterNumber":2,"parameterNumberName":"U-component_of_WINDS"},"data":[0,0,0,0,0,0,0,0,0,0,0,0,0,0,0,0,0,0,0,0,0,0,0,0,0,0,0,0,0,0,0,0,0,0,0,0,0,0,0,0,0,0,0,0,0,0,0,0,0,0,0,0,0,0,0,0,0,0,3.4581,3.4581,0,3.4644,3.4645,3.4645,3.456,3.4557,3.4554,3.4551,3.4622,3.4627,3.4631,0,0,0,0,0,0,0,0,0,0,0,0,0,3.4391,3.4395,3.4581,3.4581,3.4582,3.4644,3.4645,3.4646,3.4561,3.4557,3.4553,3.455,3.462,3.4626,3.4632,0,0,0,0,0,0,0,0,0,0,0,0,0,3.4466,3.4397,3.4581,3.4547,3.4545,3.4644,3.4645,3.4646,3.4561,3.4557,3.4552,3.4548,3.4619,3.4626,3.4633,3.4769,0,0,3.4654,3.4658,0,0,0,0,0,0,0,0,3.4462,3.4473,3.4551,3.455,3.4547,3.4589,3.4604,3.4687,3.4563,3.4555,3.4551,3.4546,3.4615,3.4622,3.4645,3.4773,3.4776,3.4655,3.4659,3.4662,3.4664,0,0,0,0,0,0,0,3.4457,3.447,3.4606,3.4552,3.455,3.4531,3.4536,3.4619,3.4611,3.4556,3.4549,3.4558,3.4613,3.4638,3.4646,3.4777,3.4655,3.4661,3.4666,3.4668,3.5019,3.5024,0,0,0,0,0,0,3.4455,3.4466,3.4604,3.4608,3.4492,3.4538,3.4544,3.4581,3.4609,3.4609,3.4562,3.4554,3.4628,3.4637,3.4648,3.4809,3.4662,3.4669,3.4673,3.5014,3.502,3.5026,0,0,0,0,0,0,3.4451,3.4468,3.4601,3.4535,3.4551,3.4546,3.4588,3.4584,3.4608,3.4614,3.4613,3.4588,3.4625,3.4638,3.4739,3.481,3.4672,3.4679,3.5008,3.5016,3.5023,3.5133,0,0,0,0,0,0,3.4446,3.4467,3.4518,3.4537,3.4555,3.469,3.4592,3.4589,3.462,3.461,3.4638,3.4639,3.4622,3.4729,3.4746,3.4818,3.4684,3.5002,3.5012,3.5021,3.5123,3.5143,3.5161,0,0,0,0,0,3.444,3.4548,3.4521,3.4538,3.4618,3.4694,3.4705,3.4682,3.4626,3.4678,3.4681,3.4638,3.48,3.474,3.4759,3.4833,3.4997,3.5009,3.502,3.5114,3.5139,3.516,0,0,0,0,0,0,3.454,3.455,3.452,3.4637,3.4665,3.468,3.4744,3.4709,3.4755,3.4744,3.4715,3.4722,3.483,3.4842,3.4775,3.4967,3.489,3.4905,3.4955,3.4979,3.4997,3.4992,3.469,0,0,0,0,0,3.4575,3.4635,3.4641,3.4744,3.4759,3.475,3.4782,3.4762,3.4791,3.4803,3.4813,3.4845,3.4902,3.4941,3.4995,3.5124,3.5129,3.5185,3.5204,3.5219,3.5233,3.5302,3.5327,3.5063,3.5063,3.5063,0,0,3.4649,3.4662,3.4702,3.4764,3.4783,3.4847,3.476,3.4832,3.4879,3.4814,3.4909,3.4919,3.4952,3.5068,3.5119,3.5081,3.5307,3.5234,3.5246,3.5252,3.5316,3.5341,3.5364,3.5071,3.5069,3.5068,0,0,3.4817,3.4832,3.4919,3.494,3.4969,3.4962,3.4983,3.5003,3.5006,3.51,3.5053,3.511,3.521,3.5235,3.5261,3.5438,3.5399,3.5456,3.5555,3.5623,3.5643,3.5662,3.5724,3.5747,3.547,3.547,3.5471,0,3.4906,3.4998,3.4969,3.5043,3.5072,3.5014,3.5102,3.5125,3.5172,3.5194,3.5149,3.5273,3.5291,3.5412,3.5455,3.5478,3.5502,3.5453,3.5642,3.5661,3.5677,3.5737,3.576,3.5477,3.5476,3.5476,3.5475,0,3.5106,3.5171,3.5238,3.5281,3.5318,3.54,3.5384,3.5425,3.5402,3.54,3.5497,3.5517,3.5573,3.56,3.5579,3.5718,3.5693,3.5646,3.5568,3.5709,3.5765,3.5787,3.5487,3.5484,3.5482,3.5481,0,0,3.5339,3.5364,3.5389,3.5408,3.5436,3.5486,3.5566,3.5618,3.5654,3.5688,3.5754,3.584,3.5796,3.5826,3.5807,3.5866,3.6004,3.5812,3.5812,3.5847,3.6159,3.6193,3.622,3.5979,3.5983,3.5987,3.6156,0,3.5505,3.5639,3.5615,3.5746,3.5806,3.5751,3.582,3.5846,3.5846,3.5898,3.5899,3.596,3.5898,3.5915,3.5972,3.5976,3.6067,3.5963,3.6041,3.6044,3.6034,3.6249,3.6286,3.6444,3.6177,3.6181,3.6183,0,3.5718,3.5757,3.5894,3.5911,3.5935,3.5998,3.6043,3.6094,3.6122,3.6118,3.615,3.612,3.62,3.6121,3.6231,3.6162,3.6192,3.6199,3.6205,3.6211,3.6122,3.6261,3.6495,3.6518,3.6217,3.6215,3.6212,0,3.5873,3.5961,3.6053,3.6071,3.6094,3.6139,3.6151,3.6175,3.6208,3.6249,3.627,3.6321,3.6349,3.6389,3.6374,3.6318,3.6488,3.6407,3.6488,3.6488,3.6526,3.6524,3.6768,3.6547,3.6546,3.6546,3.6545,0,3.6062,3.6147,3.6123,3.618,3.6275,3.6247,3.6342,3.6348,3.6369,3.6427,3.6384,3.644,3.6417,3.6472,3.6461,3.6554,3.6567,3.6567,3.6563,3.6571,3.6571,3.659,3.6579,3.6552,3.6551,3.6549,3.6548,0,3.6251,3.6238,3.6335,3.6349,3.6354,3.6423,3.6435,3.6489,3.6485,3.656,3.6576,3.6571,3.6633,3.6622,3.6692,3.6685,3.6801,3.6784,3.6791,3.6787,3.6867,3.686,3.7132,3.7166,3.6924,3.6926,3.6928,0,3.6372,3.6436,3.6456,3.649,3.6505,3.6562,3.6595,3.657,3.6606,3.6643,3.6693,3.6751,3.6796,3.6899,3.6903,3.6956,3.6939,3.7031,3.6947,3.6953,3.694,3.6936,3.6943,3.7048,3.7051,3.7053,3.7055,0,3.6588,3.6578,3.6626,3.6672,3.6711,3.6747,3.6778,3.681,3.6788,3.6831,3.6893,3.6928,3.6997,3.7056,3.7105,3.7119,3.7085,3.7081,3.7102,3.7111,3.7112,3.7112,3.6836,3.7075,3.7073,3.7071,3.707,3.7069,3.6747,3.6801,3.6822,3.6877,3.6897,3.6928,3.6978,3.698,3.7031,3.7084,3.7067,3.7138,3.7165,3.7227,3.7247,3.7303,3.7269,3.73,3.7308,3.7316,3.7325,3.7103,3.7312,3.7311,3.7311,3.731,3.731,0,3.696,3.6971,3.7021,3.7065,3.7108,3.7069,3.7101,3.7141,3.7203,3.7229,3.7274,3.7345,3.7402,3.7409,3.7463,3.7506,3.7492,3.7521,3.7518,3.7522,3.7353,3.7328,3.7532,3.7532,3.7532,3.7532,3.7532,3.7532,3.7076,3.7165,3.7158,3.7257,3.7268,3.7335,3.7357,3.7385,3.7406,3.7486,3.7532,3.7536,3.7556,3.761,3.766,3.7661,3.7683,3.7719,3.7714,3.7556,3.7534,3.7513,3.749,3.7724,3.7724,3.7878,3.788,3.7881]},{"header":{"parameterUnit":"m.s-1","parameterCategory":1,"la1":30.2991,"la2":30.254,"lo1":-89.0895,"lo2":-89.0444,"dy":0.0017,"dx":0.0017,"nx":28,"ny":28,"refTime":"2024-06-24T21:00:00:Z","depth":0,"parameterNumber":3,"parameterNumberName":"V-component_of_WINDS"},"data":[0,0,0,0,0,0,0,0,0,0,0,0,0,0,0,0,0,0,0,0,0,0,0,0,0,0,0,0,0,0,0,0,0,0,0,0,0,0,0,0,0,0,0,0,0,0,0,0,0,0,0,0,0,0,0,0,0,0,0.3043,0.3043,0,0.3038,0.3038,0.3038,0.3016,0.3015,0.3015,0.3014,0.301,0.301,0.301,0,0,0,0,0,0,0,0,0,0,0,0,0,0.3032,0.3032,0.3043,0.3043,0.3043,0.3038,0.3038,0.3038,0.3016,0.3015,0.3015,0.3014,0.3009,0.301,0.301,0,0,0,0,0,0,0,0,0,0,0,0,0,0.3033,0.3032,0.3043,0.3031,0.303,0.3038,0.3038,0.3038,0.3016,0.3015,0.3015,0.3014,0.3009,0.301,0.301,0.3029,0,0,0.3012,0.3012,0,0,0,0,0,0,0,0,0.3033,0.3033,0.3033,0.3032,0.3031,0.3027,0.3032,0.3035,0.3016,0.3022,0.3014,0.3014,0.3016,0.3016,0.3017,0.3029,0.3029,0.3012,0.3012,0.3013,0.3013,0,0,0,0,0,0,0,0.3033,0.3033,0.3041,0.3033,0.3032,0.3026,0.3025,0.3033,0.3023,0.3021,0.3019,0.3019,0.3015,0.3016,0.3016,0.3029,0.3012,0.3012,0.3013,0.3013,0.3055,0.3056,0,0,0,0,0,0,0.3034,0.3033,0.3041,0.3041,0.303,0.3027,0.3026,0.3029,0.3023,0.3021,0.302,0.3018,0.3016,0.3016,0.3016,0.3037,0.3013,0.3013,0.3013,0.3054,0.3055,0.3056,0,0,0,0,0,0,0.3034,0.3035,0.3041,0.3037,0.3037,0.3028,0.3031,0.3029,0.303,0.3022,0.302,0.3023,0.3015,0.3015,0.3026,0.3037,0.3013,0.3014,0.3053,0.3055,0.3056,0.308,0,0,0,0,0,0,0.3034,0.3035,0.3043,0.3037,0.3037,0.3052,0.3032,0.303,0.3031,0.3029,0.3024,0.3023,0.3015,0.3025,0.3026,0.3037,0.3014,0.3052,0.3054,0.3055,0.3078,0.3082,0.3085,0,0,0,0,0,0.3034,0.305,0.3043,0.3044,0.3047,0.3052,0.3053,0.3043,0.3032,0.3039,0.3034,0.3023,0.3035,0.3027,0.3028,0.3039,0.3052,0.3053,0.3055,0.3077,0.3081,0.3085,0,0,0,0,0,0,0.3058,0.3049,0.3042,0.3057,0.3055,0.3049,0.3058,0.3048,0.305,0.3047,0.3035,0.3034,0.3046,0.3043,0.3034,0.3056,0.3041,0.3044,0.3057,0.3062,0.3065,0.3065,0.3015,0,0,0,0,0,0.3065,0.307,0.3063,0.3077,0.3076,0.3067,0.3069,0.3062,0.306,0.3059,0.3054,0.3053,0.3056,0.3059,0.3061,0.3077,0.3076,0.3085,0.3089,0.3092,0.3094,0.3101,0.3105,0.3062,0.3062,0.3062,0,0,0.308,0.3076,0.308,0.3081,0.308,0.3085,0.3067,0.3074,0.3078,0.306,0.307,0.3066,0.3063,0.3076,0.3082,0.3074,0.3105,0.3094,0.3096,0.3097,0.3103,0.3107,0.3111,0.3063,0.3063,0.3063,0,0,0.3109,0.3107,0.3118,0.3116,0.3114,0.3107,0.311,0.3104,0.3101,0.311,0.3096,0.3101,0.3107,0.3105,0.3105,0.3133,0.3122,0.3134,0.3152,0.3159,0.3162,0.3165,0.3174,0.3177,0.3136,0.3136,0.3136,0,0.3128,0.3136,0.3125,0.3133,0.3133,0.3117,0.3128,0.3127,0.3125,0.3125,0.3117,0.3124,0.3121,0.3133,0.3139,0.314,0.3142,0.3134,0.3163,0.3165,0.3168,0.3176,0.318,0.3137,0.3137,0.3137,0.3137,0,0.3159,0.3165,0.3174,0.3172,0.3174,0.3183,0.3173,0.3176,0.3167,0.3162,0.317,0.3166,0.3167,0.3169,0.3162,0.318,0.3175,0.3165,0.315,0.3174,0.3181,0.3184,0.3139,0.3139,0.3138,0.3138,0,0,0.3205,0.3196,0.32,0.3198,0.3193,0.3197,0.3205,0.3205,0.3208,0.3207,0.3212,0.3217,0.3207,0.3207,0.3199,0.3205,0.3226,0.3194,0.3194,0.32,0.3245,0.3252,0.3256,0.3219,0.322,0.322,0.3245,0,0.3233,0.3246,0.3236,0.325,0.3255,0.3239,0.3246,0.3243,0.3237,0.324,0.3234,0.3237,0.3224,0.3224,0.3229,0.3223,0.3235,0.3221,0.3224,0.3224,0.3225,0.326,0.3269,0.3292,0.3248,0.3248,0.3249,0,0.3268,0.3268,0.3283,0.3276,0.3277,0.3283,0.3282,0.3285,0.3282,0.3277,0.3276,0.3266,0.3272,0.3257,0.3266,0.3256,0.3256,0.3253,0.3254,0.3254,0.3238,0.3261,0.3299,0.3303,0.3253,0.3253,0.3253,0,0.3299,0.3303,0.3312,0.3311,0.3303,0.3307,0.3304,0.33,0.33,0.3299,0.3299,0.3299,0.3299,0.3299,0.3288,0.3279,0.3298,0.3282,0.3293,0.3294,0.3298,0.3298,0.3337,0.3299,0.3299,0.3299,0.3299,0,0.3331,0.3341,0.3326,0.3331,0.3341,0.3329,0.3339,0.3334,0.333,0.3333,0.332,0.3323,0.3309,0.3312,0.3303,0.3311,0.3311,0.3307,0.3305,0.3308,0.3308,0.3308,0.3306,0.33,0.33,0.3299,0.3299,0,0.3368,0.3358,0.3367,0.3358,0.3356,0.3364,0.3356,0.336,0.3353,0.3358,0.3359,0.3348,0.3349,0.3339,0.3339,0.3333,0.3344,0.3339,0.3346,0.3344,0.3355,0.3354,0.3395,0.3399,0.3359,0.336,0.336,0,0.3389,0.3396,0.3388,0.3389,0.3387,0.339,0.339,0.3377,0.3378,0.3373,0.3378,0.3378,0.3378,0.3381,0.3373,0.3373,0.3367,0.3381,0.3367,0.337,0.3367,0.3366,0.3366,0.3385,0.3385,0.3386,0.3386,0,0.3428,0.3422,0.3423,0.3422,0.3423,0.3422,0.3419,0.3421,0.3407,0.3409,0.341,0.341,0.3409,0.3409,0.3407,0.3403,0.3392,0.339,0.3393,0.3396,0.3399,0.3397,0.3353,0.339,0.3389,0.3389,0.3389,0.3389,0.3457,0.3462,0.3456,0.3458,0.3454,0.3452,0.3456,0.3449,0.345,0.3448,0.344,0.3443,0.3437,0.3433,0.343,0.3431,0.3424,0.3428,0.3428,0.343,0.3431,0.3399,0.343,0.343,0.343,0.343,0.343,0,0.3494,0.3489,0.3491,0.3487,0.3488,0.3477,0.3474,0.3475,0.3478,0.3473,0.3473,0.3474,0.3474,0.3465,0.3463,0.3466,0.3461,0.3466,0.3466,0.3465,0.3438,0.3436,0.347,0.347,0.347,0.347,0.347,0.347,0.3514,0.3521,0.3515,0.352,0.3515,0.3517,0.3516,0.3514,0.351,0.3512,0.3511,0.3506,0.3499,0.3497,0.3496,0.3493,0.3493,0.35,0.3495,0.3471,0.3467,0.3463,0.3461,0.35,0.35,0.3522,0.3522,0.3522]}]]